SCP
0 0 1 2 2 1 0 0 0 0 0 0 0 1 2 4 5 4 3 4 6 6 5 5 6 6 6 6 5 5 4 3 4 5 6 5 4 4 6 9 12 12 12 11 9 8 7 7 6
0 0 1 2 2 1 0 0 0 0 0 0 0 1 2 4 5 4 4 4 5 5 5 5 6 6 6 6 5 4 3 3 3 4 5 5 5 5 6 8 9 9 10 10 9 7 7 6 6
0 1 1 1 1 1 0 0 0 0 0 0 1 2 3 4 5 4 4 4 4 5 5 6 6 6 6 6 5 4 4 4 4 5 5 6 6 7 8 7 7 6 7 8 8 7 6 5 5
0 1 1 1 1 0 0 0 0 0 0 0 1 3 5 5 5 4 4 4 4 5 5 6 7 7 6 6 6 6 6 6 6 6 7 7 8 8 7 6 4 5 6 7 7 6 5 4 4
0 1 1 0 0 0 0 0 0 0 0 0 2 5 6 6 6 5 4 3 4 6 6 6 7 7 7 7 7 8 8 7 6 5 5 6 6 6 5 4 3 5 6 6 5 5 4 3 3
0 0 0 0 0 0 0 0 0 0 0 1 3 6 7 6 6 5 4 3 5 8 8 7 6 7 7 7 7 8 8 7 6 4 3 3 4 3 3 2 3 3 4 4 4 3 3 3 3
0 0 0 0 0 0 0 0 0 0 0 1 3 6 8 7 6 5 4 3 5 9 9 7 6 5 5 6 6 6 6 6 5 4 3 3 3 3 2 2 2 2 2 3 2 2 2 3 3
0 0 0 0 0 0 0 0 0 0 0 0 2 5 7 7 6 6 4 3 5 8 9 8 6 5 5 5 5 5 5 5 4 4 3 3 3 3 2 1 1 2 2 2 2 2 2 2 2
0 0 0 0 0 0 0 0 0 0 0 1 2 5 8 8 7 6 5 4 4 7 8 7 6 5 4 4 3 4 4 4 3 3 3 3 2 2 2 1 2 2 1 1 1 2 2 3 3
0 0 0 0 0 0 0 0 0 1 1 2 4 7 9 8 7 6 5 4 4 5 6 6 5 4 4 3 4 3 3 3 3 3 3 2 2 2 2 2 2 2 1 2 2 2 2 3 3
0 0 0 0 0 1 1 0 1 1 1 2 5 8 9 9 8 6 5 4 4 5 5 5 5 5 4 4 4 5 4 4 4 4 4 3 3 2 2 2 2 2 2 2 3 3 3 3 3
0 0 0 0 0 0 1 1 1 1 1 3 6 9 10 10 9 8 6 5 5 5 5 6 7 7 7 6 6 6 6 6 6 6 5 4 4 4 4 3 3 2 3 4 5 5 4 4 4
0 0 0 0 0 0 1 1 1 1 2 3 7 11 12 12 11 10 8 7 6 6 6 8 11 11 11 11 10 10 9 8 7 6 6 5 6 6 7 6 6 6 6 8 9 7 6 7 7
0 0 0 0 0 0 1 1 1 1 2 4 7 12 14 14 12 12 11 11 10 10 10 12 15 17 17 16 15 14 12 10 9 8 7 7 8 9 10 11 11 11 11 12 12 10 10 10 9
0 0 0 0 0 1 1 1 1 1 2 5 7 11 14 15 14 14 15 15 15 16 18 18 17 18 18 18 17 15 12 11 10 9 9 9 10 12 13 14 13 14 13 13 13 13 13 11 10
0 0 0 0 0 0 1 1 1 1 2 5 8 9 12 15 16 17 19 21 21 23 24 21 17 16 16 16 15 13 11 9 9 10 10 10 11 13 14 13 12 12 12 12 13 13 13 11 11
0 0 0 0 0 0 1 1 1 1 2 6 9 10 11 14 17 18 22 26 28 28 27 23 18 16 14 13 13 12 10 8 8 10 11 12 13 13 13 13 12 12 12 12 12 12 13 12 12
0 0 0 0 0 1 1 1 1 1 2 6 10 12 13 15 17 20 24 30 34 35 32 28 23 19 16 13 12 11 10 9 8 9 12 15 16 16 14 14 14 13 12 12 12 12 13 12 10
0 0 0 1 1 1 1 1 1 1 2 5 8 11 12 15 19 23 28 34 40 43 41 36 29 24 20 17 14 13 12 11 11 12 15 17 20 19 17 15 16 16 15 14 14 14 13 11 9
0 0 0 1 1 1 1 1 1 2 3 5 7 7 9 13 20 27 32 37 45 51 50 45 38 32 27 23 19 16 16 16 16 17 19 21 23 24 21 19 19 20 19 19 19 18 16 13 11
0 0 0 1 1 1 1 1 1 2 4 5 5 5 6 9 17 28 35 41 47 55 59 57 51 44 37 31 26 22 22 23 23 24 25 26 29 31 29 26 24 24 24 24 23 21 18 15 13
0 0 0 1 1 1 1 1 2 2 3 3 3 3 4 6 10 20 33 43 48 56 65 70 67 58 49 41 34 30 29 30 31 32 32 34 37 38 37 35 32 30 29 27 24 21 19 16 14
0 0 0 1 1 1 1 1 2 2 2 2 2 3 4 5 6 12 25 40 48 55 67 78 79 72 61 51 43 39 36 37 39 41 42 42 43 44 43 41 38 36 34 29 24 21 19 16 15
0 0 1 1 1 1 1 1 2 2 2 2 2 3 5 6 6 8 16 32 46 56 65 76 83 82 73 61 52 47 46 48 51 53 52 48 47 47 46 42 38 35 32 27 23 21 18 15 14
0 0 1 1 1 1 1 1 1 2 2 2 2 4 6 7 8 7 11 23 41 55 63 68 77 84 82 71 60 55 56 58 62 64 59 52 49 47 44 36 29 24 20 17 16 17 16 14 14
0 0 0 1 1 1 1 1 2 2 2 2 3 4 6 8 9 9 13 24 40 53 59 61 67 80 85 78 67 61 61 63 67 71 65 57 52 46 37 27 19 14 10 9 8 10 12 13 14
2 2 2 2 2 2 1 1 2 3 3 3 3 5 6 8 11 15 22 33 45 53 58 59 63 75 85 83 72 63 63 68 73 76 70 62 53 42 30 23 17 12 9 7 6 6 7 9 11
5 6 5 5 5 4 2 1 3 5 5 3 4 4 5 9 18 29 36 43 48 53 60 64 67 74 81 82 72 64 64 72 79 77 71 64 52 38 28 23 18 13 9 7 5 5 5 6 7
6 7 9 9 8 6 3 2 4 7 6 4 3 4 7 17 31 42 47 49 50 53 60 69 73 72 72 72 67 62 65 72 74 70 64 57 47 35 27 21 16 12 8 6 5 5 5 5 5
3 6 11 14 11 7 4 2 4 7 7 5 4 5 12 26 40 47 50 51 51 54 61 71 74 69 64 63 61 61 65 68 65 61 57 50 41 33 25 18 14 11 7 5 5 5 5 5 5
Wind_Speed
9 11 10 8 7 3 3 6 10 11 11 10 11 11 13 14 10 9 9 13 16 17 15 14 12 12 12 11 11 10 10 10 10 10 11 11 10 11 10 10 10 10 10 10 10 9 9 9 8
10 12 10 7 5 1 3 5 9 11 9 8 10 11 13 13 13 12 9 12 16 17 14 13 13 12 12 11 11 10 10 10 10 10 10 10 10 10 9 9 9 9 9 9 9 8 8 8 7
12 15 8 7 3 1 4 6 6 8 7 7 9 11 11 10 11 10 10 13 16 16 15 14 13 12 12 11 11 10 10 9 9 10 10 9 9 9 9 8 8 8 8 8 7 7 7 6 6
9 8 7 5 1 3 6 6 5 7 7 7 8 10 12 11 11 12 10 12 15 16 16 14 13 12 12 11 11 10 10 9 9 9 9 9 8 8 8 8 8 7 7 7 7 6 6 5 5
10 7 8 5 1 5 5 4 5 5 5 7 9 11 13 12 14 13 9 11 14 16 16 15 13 13 12 11 10 9 9 9 8 8 8 8 7 7 7 7 7 7 6 6 6 6 5 4 4
8 7 8 5 1 3 4 4 3 5 5 6 8 11 11 11 11 10 9 10 13 16 16 14 14 13 12 11 10 9 9 9 9 9 8 7 7 7 6 6 6 6 6 5 5 4 3 3 3
10 9 11 9 2 2 3 3 3 4 6 5 6 9 10 10 10 9 9 9 12 15 15 14 13 12 12 11 10 10 10 9 9 8 8 7 7 6 7 6 6 6 6 5 5 4 3 3 2
10 9 13 8 2 2 3 2 3 3 5 4 4 6 9 11 10 9 9 9 10 12 13 13 13 12 12 11 11 10 10 10 9 9 8 8 7 7 7 7 6 6 6 5 5 4 4 4 3
12 9 11 8 2 2 3 1 3 2 2 5 7 10 12 13 11 10 9 8 8 10 10 10 12 11 11 11 11 11 11 10 9 9 9 8 6 6 6 6 8 7 6 6 6 5 5 5 5
9 7 10 7 4 0 1 0 0 2 2 5 8 12 14 11 9 10 9 9 9 9 9 9 10 9 9 8 9 7 8 7 6 5 6 5 3 3 5 8 8 7 7 7 7 7 6 5 3
9 9 9 7 3 3 2 1 0 1 1 3 7 10 13 12 9 9 9 8 8 8 7 9 9 7 7 6 6 4 4 5 4 4 4 3 3 3 4 4 5 5 6 5 6 6 4 3 2
11 10 9 7 3 3 4 3 1 1 1 3 6 9 10 10 9 8 8 7 7 7 7 7 9 7 6 5 4 4 4 4 3 3 3 2 2 2 3 2 3 3 3 3 3 3 4 3 3
12 11 9 7 6 5 4 3 2 1 1 4 7 8 10 9 9 7 7 8 8 6 7 7 7 7 5 4 3 4 3 4 4 3 2 2 2 1 1 1 2 2 2 2 2 2 2 2 2
10 9 9 9 8 7 5 5 4 3 4 5 6 7 8 8 9 8 7 6 6 6 6 7 7 7 6 4 3 2 3 3 4 4 3 2 1 1 1 1 1 1 1 1 2 3 2 2 2
10 11 11 10 10 9 8 8 6 5 6 6 6 7 7 6 6 8 8 7 6 6 6 7 7 7 6 5 3 3 3 3 3 3 3 2 2 2 1 1 1 1 1 2 1 2 2 3 3
12 13 13 11 12 11 10 8 6 6 7 7 6 6 7 6 7 8 8 7 7 7 7 6 7 8 6 4 2 2 2 3 2 3 3 2 2 1 1 1 1 1 1 1 2 1 2 2 2
12 12 14 13 13 11 10 8 6 6 6 7 6 6 7 6 7 7 8 8 8 8 7 6 5 6 6 5 3 2 2 2 2 2 2 2 2 1 1 1 1 1 1 1 2 2 1 2 2
12 13 13 13 10 9 9 8 7 7 7 7 7 7 7 7 6 7 7 8 8 8 7 6 5 5 5 4 3 2 3 2 2 2 2 2 2 2 1 1 1 2 1 1 1 1 2 1 1
15 14 12 10 7 9 8 9 7 8 7 7 6 7 7 7 7 7 7 8 8 7 7 7 6 5 5 4 3 3 3 2 2 2 2 2 2 2 1 1 2 1 1 1 1 1 2 2 1
15 14 13 10 8 6 8 9 8 8 8 7 7 7 7 8 8 8 7 7 7 7 7 6 5 5 4 3 2 2 3 2 2 2 3 3 2 2 2 2 2 2 2 2 2 2 1 2 2
14 14 14 13 10 8 8 11 10 6 6 6 6 7 7 7 8 9 8 7 8 7 7 6 6 5 5 4 3 2 2 2 2 3 3 3 2 2 2 2 2 2 2 2 2 2 3 2 2
13 13 14 15 11 9 10 9 8 8 7 7 7 6 7 7 7 8 9 8 8 7 7 6 6 4 4 4 3 4 3 3 2 2 2 3 3 2 2 1 2 1 1 2 2 2 2 2 2
13 12 12 14 13 12 10 10 6 7 6 6 6 6 7 7 7 7 9 9 8 8 7 7 6 5 4 3 3 2 2 2 2 2 3 2 2 2 2 2 1 1 1 2 2 2 2 2 2
12 12 12 13 11 13 11 10 7 7 7 7 6 6 5 6 7 7 6 7 7 7 7 7 6 5 5 4 3 2 2 2 2 2 2 2 2 2 2 2 1 1 2 2 2 2 3 2 2
11 9 7 8 8 10 7 7 5 4 5 5 5 5 6 5 6 6 6 6 6 7 7 7 7 5 5 4 4 2 2 2 2 2 2 2 2 2 2 1 1 1 2 2 2 2 2 3 3
11 11 9 8 8 8 7 7 5 6 4 5 6 4 5 5 5 6 5 5 5 6 6 7 7 6 5 5 4 3 3 2 2 1 1 2 1 1 2 2 1 1 2 2 2 2 2 2 3
12 12 13 12 13 11 6 6 5 3 4 4 5 5 5 4 4 6 5 5 5 5 4 5 6 5 5 5 4 4 4 2 2 2 2 1 1 1 2 2 2 2 2 2 2 2 2 1 2
13 10 7 8 9 10 7 5 5 8 6 5 5 5 5 5 5 6 5 5 5 5 4 4 5 5 5 5 4 4 3 3 2 2 2 1 1 1 1 2 2 2 2 2 2 2 2 2 2
11 11 9 7 8 9 8 2 1 5 4 4 4 4 4 4 5 5 5 5 5 5 5 4 4 5 4 4 4 3 3 3 2 2 1 1 1 1 2 2 2 2 2 2 2 2 2 3 3
10 11 10 8 8 8 8 2 4 5 4 3 3 3 4 4 3 4 5 4 4 4 5 4 4 4 4 4 3 2 2 2 2 2 1 1 1 1 2 2 2 2 2 2 2 2 2 2 2
Wind_Direction
250 250 240 251 244 239 33 49 62 62 64 58 50 59 60 51 53 81 98 101 109 115 121 120 116 117 117 115 114 114 113 110 107 104 104 101 100 98 97 97 98 98 97 98 99 100 97 95 95
270 263 247 245 256 125 64 57 64 65 63 71 67 67 71 70 79 97 102 109 114 119 122 119 119 120 120 119 116 115 115 115 114 112 110 108 106 104 103 102 100 99 100 102 103 104 102 100 101
266 261 263 247 244 106 82 70 75 83 75 70 74 63 58 73 82 100 116 122 117 118 118 118 124 122 121 120 118 118 118 119 121 120 118 116 114 112 110 110 108 105 103 102 102 104 103 102 106
261 248 237 256 222 90 86 94 86 88 80 69 73 77 71 69 92 108 128 126 119 118 118 123 125 123 121 122 123 125 125 125 125 124 123 122 121 120 119 119 115 111 108 106 108 108 105 104 108
247 260 263 265 240 93 80 77 74 69 69 69 80 94 90 84 100 117 130 123 119 118 119 126 127 126 124 125 128 131 130 131 130 127 126 126 127 128 127 125 122 120 118 112 110 109 107 110 115
259 260 272 269 88 79 100 83 70 78 74 75 93 102 102 107 110 125 132 127 120 121 122 129 131 132 132 133 135 136 136 138 137 135 135 135 133 132 132 129 128 129 127 121 121 120 120 126 138
259 278 278 271 186 139 91 86 62 65 72 61 78 99 114 117 121 133 131 123 121 124 129 138 142 141 141 140 141 142 143 144 144 146 147 148 150 151 148 143 138 137 138 139 141 145 148 162 178
263 282 285 275 230 128 114 108 83 54 78 83 85 106 126 133 140 138 135 129 127 129 135 144 148 148 154 152 152 152 153 155 157 160 163 164 170 172 170 163 155 154 155 157 161 169 172 185 205
259 268 278 281 272 102 106 96 116 96 95 86 72 97 126 140 148 145 140 136 134 134 139 147 147 152 156 153 153 161 162 165 168 175 179 180 192 180 177 161 161 170 172 180 185 194 200 207 220
239 256 276 301 345 20 121 100 162 140 74 84 88 105 127 142 154 154 152 148 148 148 150 147 147 151 152 147 148 164 166 161 178 171 173 187 194 165 147 148 167 180 190 198 202 212 219 222 221
245 246 268 289 329 324 311 250 291 227 146 103 123 135 142 149 164 164 159 154 151 149 150 144 141 143 142 138 149 159 155 154 167 158 164 181 186 159 139 158 173 189 199 205 192 208 223 215 206
247 255 263 278 311 282 274 289 246 322 32 120 134 143 150 161 169 167 156 149 147 147 152 139 139 132 133 130 144 154 147 146 150 156 171 174 176 165 160 164 171 181 196 200 182 185 206 206 200
248 248 255 264 263 259 263 270 271 217 133 131 140 152 162 171 171 163 152 147 146 148 147 133 130 124 123 122 144 135 134 144 147 147 165 179 173 163 152 162 172 200 200 180 174 182 175 172 169
266 263 258 255 254 249 245 252 242 211 173 156 150 162 174 173 176 154 136 135 144 147 142 139 133 127 129 134 136 135 138 143 144 144 150 179 155 145 172 181 180 219 195 164 181 182 168 165 149
266 265 260 258 255 240 235 242 231 211 184 170 164 163 163 161 157 135 136 141 147 146 143 144 143 136 140 144 156 145 138 139 136 133 141 158 162 161 192 190 174 216 202 185 191 177 167 176 176
259 254 255 244 238 236 233 244 217 201 189 175 164 157 150 143 143 139 139 141 148 147 146 148 148 144 147 142 156 143 137 134 130 133 143 155 171 167 206 201 203 209 205 202 185 178 186 179 182
250 249 253 246 226 226 229 235 209 200 203 180 170 161 150 148 146 137 141 145 150 142 137 134 135 140 145 144 148 147 129 127 127 127 138 151 171 184 211 202 244 215 208 219 196 153 181 184 189
246 245 244 246 224 222 235 231 202 202 204 193 177 165 158 156 144 136 142 142 142 140 138 137 138 136 143 147 160 148 138 138 127 119 129 145 174 192 215 198 243 241 198 195 187 162 176 199 216
259 269 267 259 229 222 229 238 218 197 204 199 181 171 169 158 142 139 142 141 138 136 140 145 148 148 151 158 163 164 163 158 155 145 138 151 176 198 209 223 208 239 210 201 188 183 192 196 188
260 268 270 270 246 228 241 251 238 205 200 203 190 183 174 161 148 142 140 140 144 143 144 140 146 153 164 154 152 169 162 167 159 144 146 153 174 202 199 224 216 200 212 199 204 191 206 206 187
256 258 264 269 263 237 232 246 240 216 196 191 195 189 184 171 160 154 155 150 146 146 150 153 153 162 168 158 162 160 151 168 161 160 158 165 182 198 214 211 236 217 211 204 208 208 203 220 226
254 254 261 267 259 250 239 245 221 201 205 201 196 192 183 180 165 160 160 160 159 158 153 142 142 150 152 159 159 166 175 177 172 162 157 169 181 195 198 203 230 235 226 208 217 195 224 218 231
258 262 259 261 263 260 251 253 243 199 204 210 197 193 187 182 172 166 165 161 164 161 153 144 138 149 151 161 158 167 169 163 153 147 144 162 176 184 185 182 203 225 232 216 228 201 213 223 229
261 265 261 256 256 251 245 252 243 213 198 201 184 182 179 173 165 158 150 150 160 159 152 148 145 147 153 164 156 168 159 161 160 160 157 171 179 177 182 186 188 213 228 221 223 218 212 224 237
244 250 254 248 245 251 249 242 234 206 207 176 165 161 162 157 149 138 136 140 151 157 153 149 148 152 156 163 162 175 177 189 177 177 174 182 187 173 175 185 195 215 223 221 212 224 223 228 231
235 239 244 255 260 257 234 223 207 183 183 137 123 126 124 137 141 140 141 140 146 142 144 147 151 156 161 163 169 176 191 207 186 185 200 191 203 182 172 182 189 213 223 229 210 220 220 221 226
243 240 252 265 272 269 238 194 173 138 141 130 130 137 134 154 151 141 143 137 137 138 138 144 150 157 169 172 175 182 185 192 188 202 212 177 189 190 149 183 195 209 220 225 219 211 216 217 220
250 254 261 264 277 276 256 215 184 169 167 156 152 154 156 158 145 138 145 136 129 129 131 144 153 165 171 173 184 180 187 197 189 195 183 173 176 162 171 185 199 208 209 215 213 212 207 208 218
248 247 249 258 261 272 272 247 140 143 138 150 157 144 139 136 139 143 143 137 135 143 151 154 157 162 170 176 181 181 185 192 186 194 181 170 172 184 194 202 203 206 208 208 216 223 210 213 210
263 262 253 250 259 268 279 300 67 100 125 149 132 126 119 123 134 139 138 135 138 150 154 158 165 169 173 174 175 171 181 186 187 192 186 183 180 198 200 205 210 218 215 209 221 230 231 222 211